[[{"header":{"parameterUnit":"m.s-1","parameterCategory":2,"la1":30.2992,"la2":30.254,"lo1":-89.0895,"lo2":-89.0443,"dy":0.0025,"dx":0.0025,"nx":19,"ny":19,"refTime":"2026-04-23T03:00:00:Z","depth":"0","parameterNumber":2,"parameterNumberName":"U-component_of_CURRENTS"},"data":[0,0,0,-0.2344,-0.2346,-0.2403,-0.2403,-0.2447,-0.2447,0,0,0,0,0,0,0,0,0,0,0,-0.2311,-0.2311,-0.2344,-0.2346,-0.2403,-0.2403,-0.2446,-0.2447,0,0,0,0,0,0,0,0,0,0,0,-0.2311,-0.2311,-0.2312,-0.2346,-0.2403,-0.2403,-0.2446,-0.2407,0,0,0,0,0,0,0,0,0,0,-0.2354,-0.2316,-0.2311,-0.2312,-0.2346,-0.2403,-0.2403,-0.2405,-0.241,-0.2417,0,-0.2428,0,-0.2451,-0.2451,-0.2451,0,0,0,-0.2332,-0.2312,-0.235,-0.2312,-0.2347,-0.2403,-0.2373,-0.2408,-0.2413,-0.2422,-0.2429,-0.2431,-0.2451,-0.2451,-0.2451,-0.2661,-0.2663,0,0,-0.2329,-0.2299,-0.2347,-0.2353,-0.2365,-0.2371,-0.2375,-0.2411,-0.2403,-0.2429,-0.2432,-0.2452,-0.2451,-0.2452,-0.2659,-0.2661,0,0,0,-0.2329,-0.2297,-0.2334,-0.2351,-0.237,-0.2373,-0.2378,-0.2401,-0.242,-0.2433,-0.2452,-0.2452,-0.2452,-0.2657,-0.266,-0.2739,0,0,0,-0.2326,-0.2299,-0.2332,-0.2312,-0.237,-0.2387,-0.2366,-0.2417,-0.2422,-0.2452,-0.2452,-0.2453,-0.2655,-0.2659,-0.2732,-0.2705,0,0,0,-0.2308,-0.2296,-0.2309,-0.2311,-0.2347,-0.2388,-0.2407,-0.2418,-0.2435,-0.2451,-0.2453,-0.2653,-0.2658,-0.2726,-0.2698,-0.2589,0,0,0,-0.2268,-0.2288,-0.2308,-0.2346,-0.2346,-0.2452,-0.2407,-0.2456,-0.2476,-0.2452,-0.2655,-0.266,-0.2724,-0.2693,-0.2587,-0.2347,-0.2336,0,0,-0.2277,-0.2287,-0.2318,-0.2339,-0.245,-0.2442,-0.2582,-0.2571,-0.2555,-0.2633,-0.2638,-0.2734,-0.2697,-0.2588,-0.2609,-0.2588,0,0,0,-0.2313,-0.2335,-0.237,-0.2438,-0.2516,-0.2614,-0.2644,-0.2662,-0.2728,-0.2592,-0.2805,-0.2779,-0.2706,-0.2562,-0.2549,-0.2461,-0.2681,-0.268,-0.268,-0.2266,-0.2349,-0.2419,-0.2539,-0.2626,-0.275,-0.2801,-0.2849,-0.2843,-0.2901,-0.2899,-0.2942,-0.2803,-0.2786,-0.2707,-0.2995,-0.2995,-0.2995,-0.2996,-0.2273,-0.2304,-0.2456,-0.2543,-0.2699,-0.282,-0.2973,-0.2986,-0.3019,-0.3043,-0.2967,-0.2725,-0.2774,-0.2695,-0.3002,-0.3001,-0.3,-0.2999,-0.2999,-0.2202,-0.2231,-0.231,-0.2463,-0.2638,-0.2825,-0.2903,-0.3036,-0.3027,-0.3026,-0.2753,-0.2748,-0.2611,-0.2964,-0.2963,-0.2963,-0.2962,-0.2962,-0.2962,-0.2058,-0.2159,-0.2174,-0.2371,-0.2449,-0.2622,-0.2837,-0.2833,-0.2792,-0.2775,-0.2771,-0.263,-0.2928,-0.2852,-0.2954,-0.2955,-0.2956,-0.2957,-0.2958,-0.1919,-0.1954,-0.1963,-0.2015,-0.2198,-0.2246,-0.2504,-0.2441,-0.244,-0.2316,-0.2338,-0.26,-0.2501,-0.2511,-0.2425,-0.2409,-0.2409,-0.2409,-0.2409,-0.1774,-0.1813,-0.174,-0.1753,-0.1855,-0.2047,-0.1881,-0.1918,-0.1953,-0.194,-0.2075,-0.2081,-0.2107,-0.1989,-0.201,-0.1916,-0.1772,-0.1772,-0.1771,-0.1648,-0.1652,-0.1528,-0.1567,-0.1675,-0.1746,-0.1545,-0.1454,-0.1569,-0.175,-0.201,-0.2036,-0.2063,-0.211,-0.1941,-0.1978,-0.183,0,0]},{"header":{"parameterUnit":"m.s-1","parameterCategory":2,"la1":30.2992,"la2":30.254,"lo1":-89.0895,"lo2":-89.0443,"dy":0.0025,"dx":0.0025,"nx":19,"ny":19,"refTime":"2026-04-23T03:00:00:Z","depth":"0","parameterNumber":3,"parameterNumberName":"V-component_of_CURRENTS"},"data":[0,0,0,-0.0138,-0.0136,-0.0028,-0.0028,0.012,0.0121,0,0,0,0,0,0,0,0,0,0,0,-0.0176,-0.0176,-0.0138,-0.0136,-0.0029,-0.0028,0.012,0.0121,0,0,0,0,0,0,0,0,0,0,0,-0.0176,-0.0176,-0.0175,-0.0136,-0.0029,-0.0028,0.012,0.0042,0,0,0,0,0,0,0,0,0,0,-0.0062,-0.0106,-0.0176,-0.0175,-0.0136,-0.0029,-0.0028,0.0038,0.0047,0.0067,0,0.0068,0,0.0088,0.0129,0.013,0,0,0,-0.0112,-0.0114,-0.009,-0.0175,-0.0135,-0.0029,-0.007,0.0043,0.0053,0.0078,0.007,0.0075,0.009,0.013,0.0131,0.0135,0.0135,0,0,-0.0118,-0.0144,-0.0097,-0.0085,-0.0127,-0.0074,-0.0067,0.0049,0.0053,0.007,0.0079,0.0093,0.0131,0.0132,0.0136,0.0135,0,0,0,-0.0151,-0.0149,-0.0127,-0.0091,-0.0077,-0.0071,-0.0064,0.0049,0.0054,0.0081,0.0094,0.0132,0.0133,0.0137,0.0136,-0.0011,0,0,0,-0.0154,-0.017,-0.013,-0.0143,-0.0081,-0.0015,-0.0067,0.0046,0.006,0.0094,0.0132,0.0134,0.0138,0.0136,-0.0005,-0.0046,0,0,0,-0.0177,-0.0172,-0.0167,-0.0145,-0.011,-0.0016,-0.0003,0.005,0.0067,0.013,0.0135,0.0139,0.0137,0.0,-0.0038,0.0086,0,0,0,-0.0195,-0.0238,-0.0168,-0.0213,-0.0111,-0.0118,-0.0003,0.0023,0.0064,0.0132,0.0138,0.0136,0.0002,-0.0032,0.0088,0.0232,0.0234,0,0,-0.0271,-0.0248,-0.0279,-0.0215,-0.0276,-0.013,-0.0167,-0.005,0.0043,0.0107,0.0108,-0.0007,-0.0037,0.0087,0.0117,0.0122,0,0,0,-0.0318,-0.0348,-0.0352,-0.0364,-0.0328,-0.0293,-0.0179,-0.0116,-0.0044,0.0055,-0.0006,-0.002,0.0064,0.0154,0.0157,0.0374,0.0127,0.0127,0.0127,-0.0446,-0.0443,-0.052,-0.0515,-0.0504,-0.0403,-0.0346,-0.0238,-0.0153,-0.0145,-0.0141,-0.0151,-0.0065,-0.0059,0.0158,-0.0152,-0.0153,-0.0153,-0.0154,-0.06,-0.0652,-0.065,-0.072,-0.067,-0.0668,-0.0525,-0.0433,-0.0288,-0.0267,-0.0176,-0.0011,-0.0063,0.0167,-0.0163,-0.0162,-0.016,-0.016,-0.0159,-0.0692,-0.0723,-0.0761,-0.0856,-0.0891,-0.082,-0.0726,-0.0611,-0.0409,-0.0352,-0.0089,-0.0084,0.0137,-0.0261,-0.0261,-0.0261,-0.0261,-0.026,-0.026,-0.0757,-0.0807,-0.091,-0.0995,-0.1055,-0.1045,-0.0831,-0.0648,-0.0352,-0.0201,-0.0197,0.0158,-0.018,-0.0154,-0.0256,-0.0257,-0.0257,-0.0258,-0.0258,-0.0848,-0.0868,-0.1032,-0.1118,-0.1237,-0.116,-0.0933,-0.0431,-0.021,-0.0013,0.03,-0.0052,0.0056,0.0056,0.009,0.0058,0.0058,0.0058,0.0058,-0.089,-0.0922,-0.1128,-0.1282,-0.136,-0.1226,-0.0683,-0.017,0.0312,0.053,0.0547,0.0572,0.055,0.0689,0.0674,0.0722,0.0851,0.0852,0.0853,-0.0936,-0.1005,-0.1149,-0.132,-0.1431,-0.1191,-0.054,0.0229,0.0761,0.0902,0.0818,0.0784,0.083,0.0778,0.1,0.0962,0.1042,0,0]}],[{"header":{"parameterUnit":"m.s-1","parameterCategory":2,"la1":30.2992,"la2":30.254,"lo1":-89.0895,"lo2":-89.0443,"dy":0.0025,"dx":0.0025,"nx":19,"ny":19,"refTime":"2026-04-23T03:00:00:Z","depth":"2","parameterNumber":2,"parameterNumberName":"U-component_of_CURRENTS"},"data":[0,0,0,-0.2269,-0.2271,-0.2326,-0.2326,-0.2292,-0.2292,0,0,0,0,0,0,0,0,0,0,0,-0.2225,-0.2226,-0.2268,-0.2271,-0.2326,-0.2326,-0.2292,-0.2292,0,0,0,0,0,0,0,0,0,0,0,-0.2225,-0.2226,-0.2227,-0.2272,-0.2326,-0.2326,-0.2292,-0.2267,0,0,0,0,0,0,0,0,0,0,-0.2223,-0.2187,-0.2226,-0.2227,-0.2272,-0.2327,-0.2326,-0.2267,-0.2269,-0.225,0,-0.2273,0,-0.2309,-0.2291,-0.2291,0,0,0,-0.2232,-0.2185,-0.2238,-0.2227,-0.2273,-0.2327,-0.229,-0.2268,-0.2271,-0.2252,-0.2273,-0.2273,-0.2308,-0.2291,-0.2291,-0.2484,-0.2486,0,0,-0.2229,-0.2193,-0.2237,-0.224,-0.2305,-0.2289,-0.2293,-0.2271,-0.2256,-0.2273,-0.2274,-0.2308,-0.2291,-0.2291,-0.2482,-0.2485,0,0,0,-0.2247,-0.2191,-0.2244,-0.2239,-0.2273,-0.2292,-0.2296,-0.2255,-0.2285,-0.2274,-0.2307,-0.2291,-0.2291,-0.2479,-0.2483,-0.2584,0,0,0,-0.2243,-0.2206,-0.2243,-0.2216,-0.2275,-0.2275,-0.228,-0.2285,-0.2285,-0.2307,-0.2291,-0.2291,-0.2477,-0.2481,-0.2576,-0.2532,0,0,0,-0.222,-0.2202,-0.2223,-0.2215,-0.2265,-0.2278,-0.2302,-0.2285,-0.2307,-0.2291,-0.2291,-0.2475,-0.248,-0.2568,-0.2524,-0.2358,0,0,0,-0.2161,-0.2217,-0.2221,-0.2282,-0.2265,-0.2364,-0.2303,-0.2329,-0.2322,-0.2291,-0.2477,-0.2483,-0.2566,-0.2518,-0.2356,-0.2136,-0.2124,0,0,-0.2212,-0.222,-0.2262,-0.2271,-0.2386,-0.2352,-0.2481,-0.243,-0.2406,-0.2463,-0.2468,-0.2578,-0.2523,-0.2357,-0.2443,-0.242,0,0,0,-0.2266,-0.23,-0.2327,-0.2393,-0.2453,-0.2524,-0.2525,-0.2526,-0.2584,-0.2439,-0.2659,-0.262,-0.251,-0.238,-0.2366,-0.2508,-0.2507,-0.2507,-0.2506,-0.2246,-0.2324,-0.241,-0.2519,-0.2579,-0.2657,-0.2678,-0.2707,-0.27,-0.2767,-0.2766,-0.2791,-0.2671,-0.2653,-0.2885,-0.2886,-0.2886,-0.2887,-0.2887,-0.2336,-0.2384,-0.2489,-0.2595,-0.2686,-0.2775,-0.2864,-0.2867,-0.2865,-0.292,-0.2808,-0.2577,-0.264,-0.2896,-0.2895,-0.2893,-0.2892,-0.2892,-0.2891,-0.2293,-0.234,-0.2419,-0.2578,-0.2683,-0.2804,-0.282,-0.2916,-0.2883,-0.2862,-0.2576,-0.2571,-0.2674,-0.279,-0.2789,-0.2788,-0.2787,-0.2787,-0.2786,-0.2202,-0.2311,-0.236,-0.2538,-0.2558,-0.266,-0.2753,-0.2697,-0.2611,-0.2599,-0.2595,-0.2752,-0.2756,-0.2665,-0.2774,-0.2776,-0.2778,-0.2779,-0.278,-0.2124,-0.2158,-0.2225,-0.2254,-0.2352,-0.2316,-0.2443,-0.2278,-0.2213,-0.2089,-0.2383,-0.2396,-0.2273,-0.2285,-0.2183,-0.2158,-0.2158,-0.2158,-0.2158,-0.1986,-0.2054,-0.2054,-0.2066,-0.2091,-0.2147,-0.1842,-0.1753,-0.1805,-0.1828,-0.1843,-0.1905,-0.1937,-0.1797,-0.1821,-0.1711,-0.1563,-0.1562,-0.1561,-0.1875,-0.1916,-0.1843,-0.1939,-0.1952,-0.1874,-0.1524,-0.1274,-0.1324,-0.1544,-0.1801,-0.2106,-0.2244,-0.2276,-0.2099,-0.2123,-0.196,0,0]},{"header":{"parameterUnit":"m.s-1","parameterCategory":2,"la1":30.2992,"la2":30.254,"lo1":-89.0895,"lo2":-89.0443,"dy":0.0025,"dx":0.0025,"nx":19,"ny":19,"refTime":"2026-04-23T03:00:00:Z","depth":"2","parameterNumber":3,"parameterNumberName":"V-component_of_CURRENTS"},"data":[0,0,0,-0.0484,-0.0481,-0.0325,-0.0324,-0.0098,-0.0097,0,0,0,0,0,0,0,0,0,0,0,-0.054,-0.0539,-0.0484,-0.0481,-0.0325,-0.0324,-0.0099,-0.0097,0,0,0,0,0,0,0,0,0,0,0,-0.054,-0.0539,-0.0539,-0.0481,-0.0326,-0.0324,-0.0099,-0.0216,0,0,0,0,0,0,0,0,0,0,-0.0367,-0.042,-0.0539,-0.0539,-0.048,-0.0326,-0.0324,-0.0221,-0.0208,-0.0172,0,-0.017,0,-0.0141,-0.0084,-0.0083,0,0,0,-0.0449,-0.043,-0.0409,-0.0539,-0.0479,-0.0326,-0.0386,-0.0214,-0.0199,-0.0155,-0.0167,-0.0158,-0.0137,-0.0083,-0.0082,0.003,0.0029,0,0,-0.0457,-0.0481,-0.042,-0.0401,-0.0467,-0.0392,-0.0382,-0.0205,-0.0189,-0.0166,-0.0153,-0.0133,-0.0082,-0.008,0.003,0.0029,0,0,0,-0.0504,-0.0487,-0.0469,-0.041,-0.0391,-0.0388,-0.0377,-0.0196,-0.0198,-0.015,-0.0131,-0.008,-0.0078,0.003,0.003,-0.0114,0,0,0,-0.0507,-0.0517,-0.0474,-0.0482,-0.0396,-0.0292,-0.0372,-0.0209,-0.0189,-0.0132,-0.008,-0.0076,0.003,0.003,-0.0109,-0.0143,0,0,0,-0.0542,-0.0519,-0.0516,-0.0485,-0.0434,-0.0295,-0.0282,-0.0204,-0.0178,-0.0083,-0.0076,0.003,0.003,-0.0106,-0.0137,-0.0013,0,0,0,-0.055,-0.0572,-0.0516,-0.0491,-0.0436,-0.0364,-0.0283,-0.0205,-0.0132,-0.0079,0.003,0.003,-0.0104,-0.0133,-0.0012,0.0073,0.0075,0,0,-0.0591,-0.0576,-0.0553,-0.0501,-0.0471,-0.0382,-0.0342,-0.0219,-0.0126,-0.002,-0.0016,-0.0111,-0.0136,-0.0012,0.0044,0.0047,0,0,0,-0.0572,-0.0575,-0.0541,-0.0502,-0.0432,-0.0408,-0.0297,-0.0236,-0.0146,-0.009,-0.008,-0.009,-0.0007,0.0046,0.0048,0.0027,0.0027,0.0027,0.0028,-0.069,-0.0626,-0.0628,-0.0571,-0.0524,-0.0424,-0.0365,-0.027,-0.0195,-0.0183,-0.0187,-0.0163,-0.0114,-0.011,-0.0175,-0.0176,-0.0177,-0.0177,-0.0177,-0.0777,-0.0799,-0.0728,-0.0722,-0.068,-0.0652,-0.0494,-0.0424,-0.0269,-0.0263,-0.0175,-0.0086,-0.0115,-0.0188,-0.0186,-0.0185,-0.0183,-0.0183,-0.0182,-0.0882,-0.0909,-0.0882,-0.0902,-0.0912,-0.0825,-0.0709,-0.0575,-0.0386,-0.0324,-0.0122,-0.0118,-0.0184,-0.0253,-0.0252,-0.0252,-0.0252,-0.0251,-0.0251,-0.1037,-0.102,-0.1081,-0.1086,-0.1126,-0.1085,-0.0817,-0.0628,-0.0351,-0.0222,-0.0218,-0.0184,-0.0181,-0.0181,-0.0246,-0.0247,-0.0247,-0.0248,-0.0248,-0.1176,-0.1168,-0.126,-0.131,-0.1351,-0.1239,-0.0953,-0.0465,-0.0235,-0.0079,-0.0094,-0.0099,-0.0,-0.0,0.0008,-0.0003,-0.0003,-0.0003,-0.0002,-0.1284,-0.1282,-0.1412,-0.1513,-0.1534,-0.133,-0.084,-0.0352,-0.0022,0.0072,0.0068,0.0034,0.0023,0.0123,0.012,0.0131,0.0152,0.0152,0.0152,-0.1363,-0.139,-0.1513,-0.1599,-0.1641,-0.1329,-0.0801,-0.0184,0.0161,0.0154,0.0049,0.0017,-0.0046,-0.0058,0.009,0.0087,0.0102,0,0]}],[{"header":{"parameterUnit":"m.s-1","parameterCategory":2,"la1":30.2992,"la2":30.254,"lo1":-89.0895,"lo2":-89.0443,"dy":0.0025,"dx":0.0025,"nx":19,"ny":19,"refTime":"2026-04-23T03:00:00:Z","depth":"4","parameterNumber":2,"parameterNumberName":"U-component_of_CURRENTS"},"data":[0,0,0,-0.1096,-0.1097,-0.1175,-0.1175,-0.124,-0.124,0,0,0,0,0,0,0,0,0,0,0,-0.1078,-0.1078,-0.1096,-0.1098,-0.1175,-0.1175,-0.124,-0.124,0,0,0,0,0,0,0,0,0,0,0,-0.1077,-0.1078,-0.1079,-0.1098,-0.1174,-0.1175,-0.124,-0.1191,0,0,0,0,0,0,0,0,0,0,-0.1121,-0.1099,-0.1078,-0.1079,-0.1098,-0.1174,-0.1175,-0.1189,-0.1194,-0.1194,0,-0.1214,0,-0.1223,-0.1244,-0.1244,0,0,0,-0.1101,-0.1095,-0.1122,-0.1079,-0.1099,-0.1174,-0.1141,-0.1192,-0.1198,-0.1201,-0.1215,-0.1217,-0.1224,-0.1244,-0.1244,-0.1314,-0.1314,0,0,-0.1097,-0.1084,-0.1119,-0.1126,-0.1128,-0.1138,-0.1143,-0.1196,-0.1201,-0.1215,-0.1219,-0.1225,-0.1244,-0.1245,-0.1313,-0.1314,0,0,0,-0.1082,-0.1081,-0.1107,-0.1123,-0.1137,-0.114,-0.1146,-0.1199,-0.121,-0.122,-0.1226,-0.1245,-0.1245,-0.1313,-0.1313,-0.1358,0,0,0,-0.108,-0.1072,-0.1106,-0.1097,-0.1136,-0.1171,-0.1148,-0.1207,-0.1213,-0.1226,-0.1245,-0.1246,-0.1312,-0.1313,-0.1356,-0.14,0,0,0,-0.1073,-0.1071,-0.1084,-0.1097,-0.1128,-0.117,-0.1185,-0.1208,-0.1216,-0.1244,-0.1246,-0.1312,-0.1313,-0.1354,-0.1396,-0.1519,0,0,0,-0.105,-0.1074,-0.1084,-0.112,-0.1127,-0.1182,-0.1185,-0.1226,-0.1253,-0.1245,-0.1312,-0.1313,-0.1353,-0.1393,-0.1515,-0.1253,0,0,0,-0.1066,-0.1075,-0.1099,-0.111,-0.1169,-0.1171,-0.1226,-0.1262,-0.1266,-0.1292,-0.1294,-0.1356,-0.1395,-0.1518,-0.131,0,0,0,0,-0.1095,-0.1118,-0.1137,-0.1177,-0.1209,-0.1251,-0.1271,-0.1297,-0.1346,-0.1286,-0.1363,-0.1387,-0.1463,-0.1297,-0.1318,-0.1318,-0.1318,-0.1318,-0.1317,-0.1082,-0.1125,-0.1177,-0.1232,-0.1263,-0.1308,-0.1356,-0.1394,-0.1372,-0.141,-0.1427,-0.1557,-0.1378,-0.1418,-0.1418,-0.1418,-0.1418,-0.1419,-0.1419,-0.1117,-0.1142,-0.1215,-0.1285,-0.1332,-0.1377,-0.1447,-0.146,-0.156,-0.1496,-0.1568,-0.1356,-0.1423,-0.1422,-0.1422,-0.1421,-0.1421,-0.142,-0.142,-0.109,-0.1108,-0.1186,-0.1289,-0.1373,-0.1426,-0.1523,-0.1575,-0.1629,-0.1682,-0.1553,-0.1628,-0.1625,-0.173,-0.173,-0.1731,-0.1732,-0.1732,-0.1733,-0.101,-0.1091,-0.1167,-0.1292,-0.1349,-0.1439,-0.1587,-0.1647,-0.1714,-0.1609,-0.172,-0.1664,-0.1653,-0.1645,-0.1744,-0.1742,-0.174,-0.1739,-0.1739,-0.0925,-0.1002,-0.109,-0.1167,-0.1313,-0.137,-0.1555,-0.1609,-0.1698,-0.1662,-0.159,-0.1594,-0.1578,-0.1571,-0.1559,-0.1637,-0.1634,-0.1631,0,-0.085,-0.0904,-0.1013,-0.1102,-0.1181,-0.131,-0.1344,-0.1438,-0.151,-0.1449,-0.1701,-0.1618,-0.1618,-0.1596,-0.1586,-0.1568,0,0,0,-0.078,-0.084,-0.0872,-0.1018,-0.1101,-0.118,-0.1336,-0.132,-0.1485,-0.1461,-0.1558,-0.1577,-0.1648,-0.1777,-0.1766,-0.1753,-0.1742,0,0]},{"header":{"parameterUnit":"m.s-1","parameterCategory":2,"la1":30.2992,"la2":30.254,"lo1":-89.0895,"lo2":-89.0443,"dy":0.0025,"dx":0.0025,"nx":19,"ny":19,"refTime":"2026-04-23T03:00:00:Z","depth":"4","parameterNumber":3,"parameterNumberName":"V-component_of_CURRENTS"},"data":[0,0,0,-0.0105,-0.0104,-0.0014,-0.0013,0.0101,0.0102,0,0,0,0,0,0,0,0,0,0,0,-0.0139,-0.0139,-0.0106,-0.0104,-0.0014,-0.0013,0.0101,0.0102,0,0,0,0,0,0,0,0,0,0,0,-0.0139,-0.0139,-0.0139,-0.0104,-0.0014,-0.0013,0.0101,0.0036,0,0,0,0,0,0,0,0,0,0,-0.005,-0.0087,-0.0139,-0.0139,-0.0103,-0.0014,-0.0013,0.0033,0.004,0.0056,0,0.006,0,0.0079,0.0108,0.0109,0,0,0,-0.009,-0.0093,-0.007,-0.0139,-0.0103,-0.0014,-0.0051,0.0037,0.0045,0.0065,0.0061,0.0066,0.0081,0.0109,0.0109,0.0206,0.0206,0,0,-0.0095,-0.0118,-0.0075,-0.0065,-0.0092,-0.0054,-0.0048,0.0042,0.0045,0.0062,0.0069,0.0082,0.011,0.011,0.0206,0.0206,0,0,0,-0.0119,-0.0122,-0.0099,-0.007,-0.0056,-0.0051,-0.0045,0.0041,0.0048,0.007,0.0084,0.011,0.0111,0.0205,0.0206,0.0178,0,0,0,-0.0121,-0.0136,-0.0102,-0.0114,-0.0058,-0.0007,-0.0048,0.0042,0.0053,0.0083,0.011,0.0112,0.0205,0.0205,0.0178,0.0143,0,0,0,-0.0141,-0.0138,-0.0132,-0.0116,-0.0083,-0.0008,0.0005,0.0045,0.0061,0.0109,0.0112,0.0205,0.0205,0.0178,0.0144,0.0114,0,0,0,-0.0161,-0.0157,-0.0133,-0.0115,-0.0084,-0.0021,0.0005,0.0055,0.0094,0.0111,0.0205,0.0206,0.0178,0.0145,0.0115,0.0079,0,0,0,-0.0166,-0.0158,-0.0144,-0.0121,-0.008,-0.0032,0.0024,0.0079,0.0114,0.0177,0.0179,0.0178,0.0144,0.0114,0.0129,0,0,0,0,-0.0152,-0.0151,-0.013,-0.0102,-0.0048,-0.0004,0.0059,0.0096,0.0156,0.0139,0.0203,0.0182,0.0163,0.0148,0.021,0.021,0.0209,0.0209,0.0209,-0.0205,-0.0166,-0.0153,-0.0105,-0.0059,0.0023,0.0066,0.0127,0.0163,0.0188,0.0179,0.0161,0.0148,0.0214,0.0214,0.0213,0.0213,0.0213,0.0213,-0.0241,-0.0242,-0.0187,-0.0167,-0.0103,-0.0054,0.0063,0.01,0.0152,0.0187,0.0171,0.0145,0.0211,0.0212,0.0212,0.0212,0.0212,0.0212,0.0213,-0.03,-0.0298,-0.0285,-0.0264,-0.0217,-0.0123,-0.0086,0.0015,0.01,0.0105,0.0078,0.0133,0.0111,0.0092,0.0092,0.0091,0.0091,0.0091,0.0091,-0.038,-0.0361,-0.0402,-0.0364,-0.0362,-0.031,-0.0185,-0.0131,-0.0019,0.0028,0.0081,0.0119,0.0123,0.0105,0.0086,0.0087,0.0088,0.0088,0.0088,-0.0439,-0.0467,-0.0524,-0.0546,-0.053,-0.0479,-0.0363,-0.0208,-0.0174,-0.01,-0.0006,-0.0,-0.0003,0.0003,-0.002,-0.0076,-0.0076,-0.0077,0,-0.051,-0.0517,-0.063,-0.0679,-0.0683,-0.0571,-0.0492,-0.0376,-0.022,-0.0228,-0.0203,-0.0107,-0.0098,-0.0111,-0.0105,-0.0138,0,0,0,-0.0557,-0.0594,-0.0684,-0.0739,-0.0744,-0.0572,-0.0462,-0.0416,-0.023,-0.0151,-0.0092,-0.0088,-0.0008,0.0074,0.0083,0.0087,0.0058,0,0]}]]